Content
SEND FEEDBACK

Daily
Averages
Monthly
Summary
United States of America

EMPORIA, VIRGINIA


Home > North America > United States > Virginia
Elevation: 109 feet     Latitude: 36 42N     Longitude: 077 30W

WEATHER
 
SELECT A DAY
Number of Records: 293,921;   Date Range: 2/28/02 - 9/3/14
 
SHARE

PRINT THIS DATA

[ ← Previous Day ]
WEATHER ALMANAC - JANUARY 24, 2013
[ Next Day → ]
[ °C ]   °F
Weather ElementAverageHighLow
Temperature26.9 °F32 °F (1:55 am)14 °F (11:55 pm)
Dewpoint13.9 °F23 °F (7:35 am)3.2 °F (5:35 pm)
Humidity59.9 %86 % (11:55 pm)34 % (2:55 pm)
Barometer30.32 in30.56 in (8:35 pm)29.99 in (3:15 am)
Wind Speed7.9 mph20.7 mph (10:35 am)
Wind Gust27.6 mph (10:55 am)
Weather ElementAverage
Visibility10 mi
Wind DirectionSW (226.3 °)

Weather ElementTotal
Precipitation---
Heating Degree Days42 (Base 65)
Averaged from 68 records on January 24, 2013
WEATHER CONDITIONS BREAKOUT
WIND DIRECTION BREAKOUT
WEATHER BY HOUR - JANUARY 24, 2013
[ °C ]   °F
Local TimeTemperatureDewpointHumidityBarometerVisibilityWind DirectionWind SpeedGust SpeedPrecipitationEventsConditions
12:35 AM30.2 °F17.6 °F60 %30.08 in10.0 miCalmOvercast
1:15 AM30.2 °F21.2 °F69 %30.04 in10.0 miENE (60°)3.5 mphOvercast
1:35 AM30.2 °F19.4 °F64 %30.04 in10.0 miCalmOvercast
1:55 AM32.0 °F19.4 °F60 %30.03 in10.0 miCalmOvercast
2:15 AM30.2 °F21.2 °F69 %30.02 in10.0 miCalmOvercast
2:55 AM30.2 °F21.2 °F69 %30.00 in10.0 miNE (40°)4.6 mphOvercast
3:15 AM30.2 °F21.2 °F69 %29.99 in10.0 miNorth (10°)4.6 mphOvercast
3:35 AM30.2 °F19.4 °F64 %30.00 in10.0 miNorth (350°)4.6 mphOvercast
3:55 AM30.2 °F19.4 °F64 %30.00 in10.0 miCalmOvercast
4:15 AM30.2 °F21.2 °F69 %29.99 in10.0 miNW (310°)3.5 mphOvercast
4:35 AM30.2 °F21.2 °F69 %30.00 in10.0 miNW (320°)3.5 mphOvercast
4:55 AM30.2 °F21.2 °F69 %30.00 in10.0 miNW (320°)4.6 mphOvercast
5:15 AM30.2 °F19.4 °F64 %30.02 in10.0 miNW (320°)10.4 mphOvercast
5:35 AM30.2 °F17.6 °F60 %30.04 in10.0 miNW (320°)11.5 mph16.1 mphOvercast
5:55 AM30.2 °F17.6 °F60 %30.05 in10.0 miNW (320°)10.4 mph16.1 mphOvercast
6:15 AM30.2 °F19.4 °F64 %30.07 in10.0 miNW (320°)10.4 mph18.4 mphOvercast
6:35 AM30.2 °F21.2 °F69 %30.08 in10.0 miNNW (340°)11.5 mphOvercast
6:55 AM28.4 °F21.2 °F74 %30.10 in10.0 miNW (320°)9.2 mphScattered Clouds
7:15 AM28.4 °F21.2 °F74 %30.13 in10.0 miNW (320°)9.2 mphClear
7:35 AM28.4 °F23.0 °F80 %30.15 in10.0 miNNW (330°)11.5 mphClear
7:55 AM28.4 °F23.0 °F80 %30.15 in10.0 miNW (320°)10.4 mph17.3 mphMostly Cloudy
8:15 AM28.4 °F23.0 °F80 %30.17 in10.0 miNNW (330°)6.9 mphMostly Cloudy
8:35 AM28.4 °F23.0 °F80 %30.19 in10.0 miNW (320°)12.7 mph19.6 mphClear
8:55 AM28.4 °F23.0 °F80 %30.22 in10.0 miNW (310°)12.7 mph17.3 mphClear
9:15 AM30.2 °F23.0 °F75 %30.24 in10.0 miNW (320°)18.4 mph21.9 mphClear
9:35 AM30.2 °F23.0 °F75 %30.25 in10.0 miNW (310°)11.5 mphClear
9:55 AM30.2 °F21.2 °F69 %30.28 in10.0 miNW (310°)15.0 mph23.0 mphScattered Clouds
10:15 AM28.4 °F21.2 °F74 %30.30 in10.0 miNW (320°)18.4 mph26.5 mphScattered Clouds
10:35 AM30.2 °F19.4 °F64 %30.33 in10.0 miNNW (330°)20.7 mph26.5 mphMostly Cloudy
10:55 AM28.4 °F17.6 °F64 %30.34 in10.0 miNNW (330°)16.1 mph27.6 mphMostly Cloudy
11:15 AM30.2 °F17.6 °F60 %30.36 in10.0 miNW (320°)17.3 mph26.5 mphOvercast
11:35 AM28.4 °F14.0 °F55 %30.36 in10.0 miNW (320°)13.8 mph25.3 mphMostly Cloudy
11:55 AM28.4 °F12.2 °F51 %30.38 in10.0 miNW (310°)15.0 mph24.2 mphMostly Cloudy
12:15 PM30.2 °F12.2 °F47 %30.38 in10.0 miNNW (330°)16.1 mph21.9 mphMostly Cloudy
12:35 PM30.2 °F12.2 °F47 %30.38 in10.0 miWNW (300°)12.7 mph20.7 mphScattered Clouds
12:55 PM30.2 °F10.4 °F44 %30.39 in10.0 miNW (310°)16.1 mph27.6 mphScattered Clouds
1:15 PM30.2 °F8.6 °F40 %30.40 in10.0 miNW (320°)15.0 mph20.7 mphMostly Cloudy
1:35 PM30.2 °F8.6 °F40 %30.40 in10.0 miNW (310°)12.7 mph23.0 mphScattered Clouds
1:55 PM30.2 °F8.6 °F40 %30.40 in10.0 miNW (320°)15.0 mph24.2 mphScattered Clouds
2:35 PM30.2 °F6.8 °F37 %30.42 in10.0 miWNW (300°)15.0 mph19.6 mphScattered Clouds
2:55 PM30.2 °F5.0 °F34 %30.42 in10.0 miNW (310°)15.0 mph24.2 mphScattered Clouds
3:15 PM28.4 °F5.0 °F37 %30.43 in10.0 miNW (310°)17.3 mph21.9 mphScattered Clouds
3:35 PM30.2 °F6.8 °F37 %30.43 in10.0 miNW (310°)13.8 mph19.6 mphMostly Cloudy
3:55 PM30.2 °F6.8 °F37 %30.45 in10.0 miNNW (340°)11.5 mph17.3 mphOvercast
4:15 PM28.4 °F6.8 °F40 %30.46 in10.0 miNW (320°)12.7 mphScattered Clouds
4:35 PM28.4 °F5.0 °F37 %30.46 in10.0 miNW (320°)9.2 mph16.1 mphClear
4:55 PM28.4 °F5.0 °F37 %30.47 in10.0 miNW (320°)6.9 mphClear
5:15 PM28.4 °F5.0 °F37 %30.48 in10.0 miNW (310°)10.4 mph17.3 mphClear
5:35 PM26.6 °F3.2 °F37 %30.49 in10.0 miNW (320°)4.6 mphClear
5:55 PM26.6 °F5.0 °F40 %30.49 in10.0 miNW (320°)6.9 mphClear
6:15 PM26.6 °F3.2 °F37 %30.50 in10.0 miNNW (330°)4.6 mphClear
6:35 PM23.0 °F5.0 °F46 %30.51 in10.0 miCalmClear
6:55 PM23.0 °F5.0 °F46 %30.52 in10.0 miNW (320°)4.6 mphClear
7:15 PM23.0 °F6.8 °F50 %30.52 in10.0 miNW (320°)3.5 mphClear
7:35 PM23.0 °F6.8 °F50 %30.54 in10.0 miWNW (290°)3.5 mphClear
7:55 PM21.2 °F6.8 °F54 %30.54 in10.0 miWNW (290°)3.5 mphClear
8:15 PM21.2 °F8.6 °F58 %30.55 in10.0 miCalmClear
8:35 PM21.2 °F10.4 °F63 %30.56 in10.0 miCalmClear
8:55 PM19.4 °F10.4 °F68 %30.56 in10.0 miCalmClear
9:15 PM19.4 °F10.4 °F68 %30.56 in10.0 miCalmClear
9:35 PM17.6 °F10.4 °F73 %30.56 in10.0 miCalmClear
9:55 PM17.6 °F12.2 °F79 %30.56 in10.0 miCalmClear
10:15 PM17.6 °F10.4 °F73 %30.56 in10.0 miCalmClear
10:35 PM15.8 °F10.4 °F79 %30.56 in10.0 miCalmClear
10:55 PM17.6 °F10.4 °F73 %30.56 in10.0 miNW (320°)4.6 mphClear
11:15 PM17.6 °F10.4 °F73 %30.56 in10.0 miCalmClear
11:35 PM15.8 °F10.4 °F79 %30.56 in10.0 miCalmClear
11:55 PM14.0 °F10.4 °F86 %30.55 in10.0 miCalmClear
Hourly data recorded from KEMV, located miles away from Emporia, Virginia







STORIES FROM OUR PARTNERS